ECHOSTAR 8

Last updated on Mon May 08 2017 00:17:23 GMT+0000 (Coordinated Universal Time)

1 27501U 02039A 17127.50741007 .00000012 00000-0 00000-0 0 9994 2 27501 0.9478 85.0874 0010155 322.5683 242.1279 0.98508035 19272
UTC large
Height (km)
Speed (km/s)
/
Latitude / Longitude
Inclination (degrees)
Orbital Period (minutes)
Azimuth
Elevation
Range (km)
Doppler Factor

Next 0 passes for location: London (51.5072 / 0.1276)

Sorry there are no passes over London.
ECHOSTAR 8